Date,TemperatureHighF,TemperatureAvgF,TemperatureLowF,DewpointHighF,DewpointAvgF,DewpointLowF,HumidityHigh,HumidityAvg,HumidityLow,PressureMaxIn,PressureMinIn,WindSpeedMaxMPH,WindSpeedAvgMPH,GustSpeedMaxMPH,PrecipitationSumIn
2013-1-1,51,49,46,49,42,31,97,80,53,30.20,30.00,8,1,12,0.22
2013-1-2,50,48,44,49,45,41,97,91,80,30.23,29.93,9,1,9,0.14
2013-1-3,45,41,30,41,38,28,93,88,83,30.35,30.17,7,0,7,0.01
2013-1-4,51,37,24,34,27,21,96,71,43,30.43,30.30,10,1,11,0.00
2013-1-5,52,39,23,34,26,20,93,63,37,30.48,30.31,6,0,7,0.00
2013-1-6,53,45,37,42,38,32,93,75,64,30.31,30.12,11,1,11,0.01
2013-1-7,53,39,28,34,30,26,93,72,46,30.50,30.26,9,1,11,0.00
2013-1-8,56,44,27,44,37,26,94,77,57,30.53,30.43,6,0,6,0.00
2013-1-9,69,53,35,53,45,33,95,76,52,30.53,30.43,6,0,9,0.00
2013-1-10,68,56,44,52,48,43,96,75,51,30.56,30.43,9,1,10,0.01
2013-1-11,53,50,47,51,49,46,98,96,88,30.43,30.22,8,1,8,0.01
2013-1-12,75,61,50,65,57,50,98,88,63,30.23,30.14,8,1,11,0.01
2013-1-13,74,64,54,64,59,53,97,84,65,30.19,30.10,11,1,13,0.00
2013-1-14,72,65,60,64,60,57,96,86,75,30.18,30.10,7,1,11,0.02
2013-1-15,66,52,45,61,50,44,97,94,82,30.23,30.11,9,1,10,0.00
2013-1-16,51,47,43,50,46,42,98,97,96,30.11,30.04,7,1,9,0.16
2013-1-17,52,46,34,51,45,33,97,96,93,30.24,29.83,21,3,21,1.48
2013-1-18,54,38,29,38,30,24,97,77,41,30.59,30.24,12,1,12,0.02
2013-1-19,58,39,21,36,28,19,96,68,33,30.57,30.25,7,0,8,0.00
2013-1-20,70,49,36,39,33,30,79,57,30,30.25,30.07,11,1,12,0.00
2013-1-21,66,45,27,37,29,18,96,58,28,30.15,29.98,14,2,18,0.00
2013-1-22,51,38,24,20,12,2,60,36,19,30.33,30.06,16,2,16,0.00
2013-1-23,50,33,18,28,17,10,82,54,28,30.45,30.14,8,1,10,0.00
2013-1-24,52,39,24,37,22,5,83,53,29,30.57,30.06,15,2,16,0.00
2013-1-25,27,24,18,23,16,8,91,73,50,30.59,30.21,7,1,7,0.03
2013-1-26,44,31,24,36,27,22,95,86,67,30.45,30.19,5,0,6,0.04
2013-1-27,47,35,23,31,28,21,96,75,51,30.65,30.45,7,1,8,0.01
2013-1-28,50,42,32,48,37,28,92,81,64,30.57,30.33,7,1,9,0.01
2013-1-29,76,59,44,60,52,42,97,81,56,30.33,30.10,9,1,11,0.00
2013-1-30,75,66,51,64,61,48,93,82,62,30.11,29.50,25,6,26,1.09
2013-1-31,55,46,38,48,31,20,90,58,33,30.11,29.60,20,5,23,0.01
2013-2-1,48,38,23,30,16,5,61,43,23,30.45,30.00,21,4,24,0.00
2013-2-2,49,34,18,35,18,11,84,56,25,30.48,30.12,18,2,21,0.00
2013-2-3,55,43,32,36,30,22,93,63,35,30.12,29.92,17,3,17,0.00
2013-2-4,52,38,25,30,26,21,90,64,39,30.22,30.07,8,1,11,0.00
2013-2-5,67,50,34,44,37,28,81,62,40,30.09,29.94,16,2,17,0.00
2013-2-6,71,49,34,48,33,26,97,61,23,30.30,30.04,7,1,9,0.00
2013-2-7,46,41,35,40,35,27,95,81,65,30.34,30.02,11,2,13,0.39
2013-2-8,63,47,38,50,40,29,95,77,55,30.16,29.92,14,4,17,0.08
2013-2-9,64,44,27,32,25,19,90,53,20,30.41,30.16,11,1,12,0.00
2013-2-10,59,44,28,47,31,22,93,65,28,30.52,30.26,12,2,12,0.13
2013-2-11,62,57,49,59,55,47,96,92,85,30.26,30.00,14,3,16,0.11
2013-2-12,62,53,44,50,41,29,95,69,30,30.16,29.97,7,1,9,0.06
2013-2-13,49,46,40,47,44,35,96,91,78,30.00,29.71,15,2,17,0.11
2013-2-14,53,41,29,38,34,27,96,77,53,30.15,29.94,7,1,8,0.00
2013-2-15,63,47,32,42,34,30,96,67,32,30.17,30.00,10,1,10,0.00
2013-2-16,48,36,27,38,32,22,95,85,68,30.07,29.90,12,2,17,0.14
2013-2-17,41,31,22,25,19,14,84,62,35,30.35,30.07,14,3,17,0.04
2013-2-18,56,38,20,31,24,17,91,60,34,30.48,30.30,12,2,12,0.00
2013-2-19,48,41,36,45,36,26,95,82,61,30.31,29.95,13,2,15,0.23
2013-2-20,55,42,26,31,23,16,81,49,22,30.19,30.08,9,1,10,0.00
2013-2-21,58,42,24,34,23,16,79,50,27,30.32,30.17,8,0,10,0.00
2013-2-22,45,38,36,36,35,27,96,88,49,30.37,30.17,8,1,8,0.30
2013-2-23,44,40,36,42,39,35,96,96,93,30.20,29.92,6,1,7,0.42
2013-2-24,66,50,37,47,40,31,97,73,28,30.09,29.90,12,2,13,0.00
2013-2-25,42,39,34,32,28,26,84,66,57,30.25,30.08,11,2,12,0.00
2013-2-26,48,40,34,48,38,26,97,91,62,30.15,29.63,15,2,15,0.88
2013-2-27,57,47,36,44,39,35,97,75,54,29.89,29.72,13,2,14,0.00
2013-2-28,52,43,33,38,31,26,93,63,42,29.96,29.78,14,2,15,0.00
2013-3-1,50,40,27,33,30,24,93,67,48,30.01,29.93,10,2,12,0.00
2013-3-2,45,38,32,40,33,25,94,82,72,30.02,29.90,13,1,14,0.09
2013-3-3,47,35,22,27,22,18,90,61,39,30.08,29.96,14,2,14,0.00
2013-3-4,54,39,22,28,21,17,83,53,26,30.22,30.08,12,2,13,0.00
2013-3-5,59,48,40,52,38,25,95,71,52,30.14,29.65,12,1,13,0.25
2013-3-6,51,42,35,46,30,24,93,63,42,30.18,29.65,22,6,23,0.00
2013-3-7,55,42,28,35,28,24,87,62,40,30.34,30.18,13,2,14,0.00
2013-3-8,56,42,30,31,26,23,75,54,31,30.40,30.26,19,3,19,0.00
2013-3-9,63,46,28,38,31,24,87,60,34,30.42,30.30,9,1,9,0.00
2013-3-10,67,50,32,44,36,30,93,62,33,30.37,30.23,10,1,11,0.00
2013-3-11,70,55,38,54,42,20,89,63,38,30.28,29.92,17,3,18,0.05
2013-3-12,72,61,48,61,51,31,95,72,38,30.03,29.81,13,4,15,0.86
2013-3-13,60,46,34,37,29,19,90,54,32,30.22,30.03,18,3,23,0.00
2013-3-14,55,42,29,29,21,17,66,45,25,30.35,30.21,13,3,18,0.00
2013-3-15,66,48,29,41,32,22,85,56,35,30.29,29.98,12,2,13,0.00
2013-3-16,79,66,56,51,44,40,61,47,32,29.98,29.77,19,3,23,0.00
2013-3-17,77,61,46,55,46,40,79,59,40,30.14,29.90,12,2,14,0.00
2013-3-18,46,43,40,42,40,38,96,91,79,30.20,29.92,12,2,14,0.51
2013-3-19,68,52,42,48,35,19,97,61,21,30.10,29.92,18,4,18,0.00
2013-3-20,57,48,40,27,19,12,55,32,23,30.18,29.84,10,2,11,0.00
2013-3-21,49,40,31,28,19,12,65,44,26,30.05,29.83,16,4,23,0.00
2013-3-22,52,39,24,28,20,13,80,48,28,30.17,30.05,9,1,10,0.00
2013-3-23,49,43,38,44,36,27,95,78,49,30.13,29.97,5,0,6,0.04
2013-3-24,42,40,38,41,39,37,96,95,92,29.99,29.61,14,2,16,0.91
2013-3-25,49,42,37,39,31,21,97,70,40,29.96,29.63,19,4,21,0.05
2013-3-26,49,40,29,32,26,23,80,59,45,30.25,29.96,14,3,15,0.00
2013-3-27,54,42,31,31,25,21,76,53,33,30.33,30.24,14,3,18,0.00
2013-3-28,57,43,28,29,24,20,79,49,27,30.38,30.26,14,3,15,0.00
2013-3-29,63,47,27,36,29,24,88,53,28,30.42,30.25,11,1,13,0.00
2013-3-30,66,55,46,51,45,36,96,72,48,30.29,30.13,7,1,7,0.20
2013-3-31,72,59,50,58,52,46,95,78,54,30.13,29.86,13,2,17,0.35
2013-4-1,74,63,55,56,47,37,96,62,28,30.01,29.89,14,2,15,0.03
2013-4-2,65,53,37,42,36,28,88,56,30,30.22,30.01,11,1,12,0.00
2013-4-3,62,53,45,35,26,19,59,36,27,30.33,30.17,12,2,12,0.00
2013-4-4,47,42,38,38,34,25,95,77,44,30.34,30.02,12,2,17,0.82
2013-4-5,64,48,37,51,42,36,95,80,48,30.10,29.98,10,2,11,0.01
2013-4-6,68,53,35,44,38,33,95,61,34,30.29,30.10,11,1,12,0.00
2013-4-7,72,57,38,52,44,34,90,64,40,30.33,30.16,11,2,17,0.00
2013-4-8,78,66,52,59,54,50,94,67,44,30.23,30.11,11,2,13,0.00
2013-4-9,82,70,53,63,57,50,95,67,45,30.25,30.13,11,2,11,0.00
2013-4-10,85,73,59,64,60,56,93,64,44,30.17,30.00,11,2,14,0.00
2013-4-11,81,70,61,67,62,57,94,76,56,30.03,29.81,15,3,15,0.00
2013-4-12,81,71,57,68,59,41,95,70,28,29.87,29.67,18,4,18,0.37
2013-4-13,75,60,43,52,44,39,93,59,28,30.08,29.87,13,1,13,0.00
2013-4-14,76,61,43,55,47,41,94,64,35,30.15,30.04,11,2,12,0.00
2013-4-15,73,64,57,62,58,54,93,80,66,30.24,30.03,9,1,11,0.01
2013-4-16,77,66,56,66,60,55,96,81,57,30.34,30.23,8,1,8,0.00
2013-4-17,85,71,57,68,61,55,95,74,46,30.31,30.14,12,2,12,0.00
2013-4-18,80,70,62,65,61,59,92,74,54,30.21,30.04,15,3,16,0.00
2013-4-19,80,68,55,69,63,50,94,85,64,30.05,29.79,20,4,24,0.47
2013-4-20,64,54,42,51,40,32,92,63,33,30.32,29.94,13,2,13,0.00
2013-4-21,64,51,37,47,41,36,95,70,46,30.51,30.32,13,2,14,0.00
2013-4-22,64,51,39,41,36,30,87,61,29,30.48,30.28,13,2,16,0.00
2013-4-23,66,56,47,56,48,40,92,76,63,30.33,30.17,8,1,10,0.00
2013-4-24,76,62,51,62,55,50,96,78,52,30.22,30.06,15,2,17,0.00
2013-4-25,71,61,45,58,47,36,91,64,31,30.32,30.09,11,2,14,0.00
2013-4-26,72,58,40,49,41,34,91,55,31,30.49,30.31,10,1,12,0.00
2013-4-27,68,58,53,56,51,46,96,80,52,30.42,30.30,6,0,7,0.21
2013-4-28,61,56,54,60,55,53,97,96,92,30.31,30.12,9,1,10,1.73
2013-4-29,74,63,57,65,59,56,98,90,68,30.12,29.99,7,1,7,0.21
2013-4-30,72,63,56,64,59,54,98,90,70,30.21,30.03,10,1,10,0.00
2013-5-1,65,58,52,59,56,50,97,90,79,30.33,30.21,10,2,17,0.02
2013-5-2,63,59,56,60,57,56,97,94,88,30.35,30.26,10,2,14,0.14
2013-5-3,70,60,53,57,54,45,94,79,60,30.27,30.16,14,2,17,0.00
2013-5-4,64,56,48,54,49,43,91,78,66,30.19,30.05,17,3,18,0.00
2013-5-5,60,55,51,59,52,48,96,92,83,30.08,29.91,18,3,21,0.36
2013-5-6,72,63,56,61,56,49,97,79,51,29.95,29.86,18,2,18,0.58
2013-5-7,69,58,46,57,51,44,96,78,56,30.01,29.91,13,1,13,0.00
2013-5-8,76,64,50,60,56,49,97,77,50,30.06,29.98,11,1,14,0.01
2013-5-9,82,68,52,62,56,51,97,71,40,30.13,30.04,8,1,9,0.00
2013-5-10,84,71,55,66,60,54,96,71,47,30.12,29.99,12,1,15,0.00
2013-5-11,81,72,64,70,63,59,93,73,56,30.01,29.85,12,2,13,0.16
2013-5-12,75,66,53,62,51,34,96,64,24,30.09,29.87,14,2,16,0.01
2013-5-13,68,55,42,45,39,31,90,59,30,30.23,30.09,12,1,15,0.00
2013-5-14,72,58,39,51,42,36,93,59,34,30.32,30.14,12,1,13,0.00
2013-5-15,88,72,55,66,56,45,80,60,42,30.14,29.97,9,1,12,0.00
2013-5-16,84,74,60,65,60,56,89,65,42,30.06,29.97,8,1,9,0.00
2013-5-17,86,73,62,70,63,59,92,71,46,30.12,30.04,10,1,10,0.00
2013-5-18,79,70,63,68,64,61,94,83,66,30.18,30.11,11,1,11,0.04
2013-5-19,76,69,65,70,66,64,96,92,83,30.17,30.08,13,2,13,0.09
2013-5-20,82,72,67,72,68,64,97,86,61,30.16,30.04,8,1,8,0.08
2013-5-21,84,70,64,75,67,61,97,91,68,30.11,30.00,23,1,32,1.87
2013-5-22,84,74,66,71,67,63,97,80,59,30.07,29.93,11,2,13,0.13
2013-5-23,79,70,65,70,66,62,96,86,68,30.01,29.87,8,1,10,0.20
2013-5-24,74,66,50,63,52,37,95,65,30,30.25,29.90,19,3,22,0.00
2013-5-25,76,60,42,52,45,40,94,62,29,30.37,30.20,10,1,10,0.00
2013-5-26,75,63,54,54,49,44,91,63,38,30.34,30.22,8,1,8,0.00
2013-5-27,81,68,50,63,56,49,96,70,42,30.33,30.20,9,1,10,0.00
2013-5-28,83,74,63,67,64,61,93,73,53,30.29,30.18,10,2,13,0.00
2013-5-29,84,74,61,68,63,59,92,71,52,30.30,30.19,9,2,11,0.00
2013-5-30,83,73,60,68,64,58,96,74,49,30.33,30.20,8,1,11,0.00
2013-5-31,87,76,64,71,67,63,96,75,52,30.28,30.14,8,1,10,0.00
2013-6-1,86,77,67,71,67,64,95,73,50,30.18,30.05,9,2,12,0.00
2013-6-2,86,76,68,72,67,64,95,77,52,30.11,29.92,17,2,17,2.07
2013-6-3,83,74,67,73,69,64,97,86,61,30.00,29.87,9,1,11,0.23
2013-6-4,83,73,64,71,67,63,97,81,63,30.11,29.98,8,1,11,0.00
2013-6-5,80,72,67,72,67,64,95,86,72,30.14,30.03,10,1,10,0.02
2013-6-6,76,72,68,73,70,67,97,94,86,30.03,29.85,10,2,10,1.29
2013-6-7,80,71,67,74,69,66,98,93,78,29.90,29.65,10,2,17,0.75
2013-6-8,84,74,66,74,69,66,97,85,62,30.13,29.87,9,1,10,0.01
2013-6-9,87,74,65,74,69,64,98,85,58,30.19,30.10,15,1,17,0.00
2013-6-10,84,74,69,75,71,68,96,92,74,30.13,29.94,14,3,15,0.88
2013-6-11,86,76,68,73,68,65,96,78,52,30.03,29.96,13,2,16,0.01
2013-6-12,92,79,64,77,70,62,97,78,57,30.05,29.92,10,1,15,0.00
2013-6-13,93,82,68,76,73,63,95,75,50,29.92,29.69,10,2,34,0.61
2013-6-14,83,72,59,68,62,57,97,72,46,30.07,29.80,11,1,14,0.01
2013-6-15,84,72,57,67,61,56,97,72,49,30.18,30.07,7,1,8,0.00
2013-6-16,86,76,64,72,66,61,90,74,56,30.20,30.05,11,2,12,0.00
2013-6-17,86,75,70,76,69,65,95,81,64,30.09,29.97,13,2,14,0.01
2013-6-18,85,75,70,74,71,68,96,87,66,30.02,29.82,13,2,14,0.37
2013-6-19,84,74,68,70,67,62,97,81,55,30.15,29.93,8,1,11,0.00
2013-6-20,83,72,63,70,65,62,97,81,58,30.27,30.15,8,1,11,0.00
2013-6-21,83,71,59,68,62,58,96,76,52,30.31,30.22,10,1,14,0.00
2013-6-22,82,72,60,74,66,58,95,83,66,30.27,30.16,11,1,11,0.00
2013-6-23,84,74,67,75,71,66,97,89,68,30.25,30.16,8,0,10,0.37
2013-6-24,86,74,68,77,70,66,98,89,69,30.26,30.15,12,1,12,0.01
2013-6-25,90,78,70,76,71,68,96,82,56,30.18,30.05,13,2,13,0.00
2013-6-26,90,78,70,78,72,67,96,82,60,30.08,29.94,8,1,10,0.02
2013-6-27,90,78,71,79,73,67,96,85,63,29.99,29.77,12,2,19,1.91
2013-6-28,91,80,70,78,73,68,98,81,55,29.80,29.63,18,1,18,0.02
2013-6-29,86,77,71,74,71,68,95,82,62,29.76,29.65,10,1,14,0.00
2013-6-30,84,75,66,75,71,65,96,89,71,29.88,29.73,13,1,15,1.55
2013-7-1,81,73,67,73,70,65,98,89,75,30.03,29.86,9,1,12,0.12
2013-7-2,78,73,71,73,70,68,97,93,79,30.19,30.02,14,3,16,0.47
2013-7-3,81,75,72,76,72,71,97,93,78,30.26,30.17,9,2,11,0.08
2013-7-4,87,77,72,76,73,71,97,86,61,30.29,30.19,15,3,17,0.16
2013-7-5,86,77,72,76,73,70,96,88,66,30.29,30.21,11,2,18,0.41
2013-7-6,84,76,69,77,72,68,98,90,72,30.28,30.15,10,1,13,0.47
2013-7-7,87,77,70,77,73,69,98,89,69,30.23,30.10,10,1,13,0.54
2013-7-8,87,78,71,77,73,70,97,86,66,30.23,30.14,9,1,9,0.09
2013-7-9,89,79,73,78,74,72,96,84,67,30.20,30.09,9,1,12,0.00
2013-7-10,88,77,71,78,73,69,96,87,65,30.16,29.99,14,1,21,0.02
2013-7-11,82,74,70,76,72,69,96,93,81,30.01,29.92,10,1,11,0.49
2013-7-12,80,74,70,76,71,69,97,91,78,30.04,29.91,8,1,11,0.08
2013-7-13,81,74,70,75,71,68,96,90,78,30.15,30.04,7,1,10,0.09
2013-7-14,86,77,71,76,72,69,97,87,65,30.32,30.13,14,2,15,0.22
2013-7-15,88,77,69,78,72,68,98,85,62,30.36,30.27,8,1,9,0.00
2013-7-16,91,80,69,78,73,68,98,79,53,30.34,30.24,7,0,7,0.00
2013-7-17,92,77,71,81,73,67,96,87,65,30.27,30.16,14,0,14,0.15
2013-7-18,90,79,69,79,74,68,97,84,62,30.22,30.09,7,0,8,0.00
2013-7-19,89,81,74,78,74,70,95,80,59,30.15,30.02,10,2,13,0.00
2013-7-20,86,78,73,78,73,70,93,85,72,30.08,29.96,11,2,12,0.00
2013-7-21,89,77,72,78,73,70,96,87,63,30.06,29.94,10,1,15,0.03
2013-7-22,86,77,71,76,72,70,96,86,68,30.03,29.88,9,1,12,0.01
2013-7-23,90,81,74,75,72,71,94,77,56,29.90,29.79,14,1,14,0.00
2013-7-24,91,79,70,77,72,68,96,80,54,29.90,29.77,8,1,9,0.10
2013-7-25,83,75,69,73,69,67,96,84,66,30.07,29.84,8,1,10,0.00
2013-7-26,85,74,65,72,68,64,97,82,58,30.16,30.05,7,1,9,0.01
2013-7-27,82,73,69,74,70,67,96,91,75,30.08,29.97,13,2,13,0.80
2013-7-28,87,78,70,75,71,68,96,82,61,30.04,29.96,11,1,11,0.00
2013-7-29,86,77,70,74,70,67,96,80,57,30.19,30.03,7,1,9,0.00
2013-7-30,79,69,66,68,66,64,96,91,67,30.26,30.18,1,0,1,0.00
2013-7-31,84,75,70,74,71,68,95,87,68,30.19,30.03,10,1,13,0.54
2013-8-1,86,75,71,76,72,69,96,89,68,30.04,29.92,7,1,9,0.55
2013-8-2,87,77,68,75,71,67,97,84,65,30.07,29.96,9,0,9,0.00
2013-8-3,90,80,73,78,73,70,96,82,59,30.07,29.96,7,1,9,0.00
2013-8-4,87,77,68,73,69,65,95,78,55,30.07,29.96,12,1,13,0.00
2013-8-5,85,75,67,71,67,64,95,77,52,30.12,30.02,9,1,9,0.00
2013-8-6,74,71,67,70,67,64,96,88,74,30.12,30.02,9,2,11,0.80
2013-8-7,84,76,69,73,70,67,96,83,62,30.15,30.05,9,1,10,0.00
2013-8-8,87,78,72,77,72,69,93,84,65,30.11,30.03,8,1,8,0.00
2013-8-9,89,80,73,79,74,71,95,84,66,30.12,30.03,12,1,12,0.04
2013-8-10,92,80,73,81,74,71,96,85,62,30.14,30.06,10,1,12,0.28
2013-8-11,92,81,72,78,74,70,96,81,59,30.16,30.06,11,1,11,0.00
2013-8-12,93,82,71,77,74,69,96,78,56,30.10,29.97,7,0,8,0.00
2013-8-13,91,80,72,78,73,70,95,82,63,30.01,29.83,12,1,12,0.40
2013-8-14,77,72,63,73,66,61,96,85,67,30.12,29.89,7,1,9,0.01
2013-8-15,76,66,59,63,60,57,95,82,57,30.20,30.10,10,1,12,0.00
2013-8-16,68,63,59,63,60,56,94,88,77,30.22,30.12,5,0,8,0.03
2013-8-17,68,64,61,66,63,60,96,95,90,30.23,30.17,8,1,10,0.45
2013-8-18,84,74,66,74,69,64,97,87,66,30.27,30.17,7,0,8,0.01
2013-8-19,77,72,67,72,69,65,96,91,79,30.23,30.13,6,1,6,0.54
2013-8-20,82,73,64,75,69,63,97,89,75,30.24,30.15,5,0,5,0.01
2013-8-21,86,75,70,77,72,69,97,90,69,30.27,30.15,10,0,15,1.51
2013-8-22,89,78,68,76,72,68,97,82,59,30.20,30.04,9,1,9,0.00
2013-8-23,90,77,69,76,70,67,96,82,54,30.10,29.99,9,1,11,0.00
2013-8-24,82,72,62,68,64,60,93,78,54,30.33,30.10,14,1,14,0.00
2013-8-25,81,68,58,66,61,57,97,80,51,30.44,30.33,12,1,14,0.00
2013-8-26,82,68,53,66,60,52,97,78,53,30.37,30.17,0,0,0,0.00
2013-8-27,89,76,64,73,67,59,90,75,53,30.20,30.03,0,0,0,0.00
2013-8-28,90,79,68,76,71,66,95,79,57,30.06,29.95,6,0,8,0.00
2013-8-29,92,81,74,77,73,70,91,77,56,30.01,29.92,9,1,11,0.00
2013-8-30,86,76,68,71,68,62,96,77,47,30.09,29.98,7,1,8,0.00
2013-8-31,88,77,69,76,71,66,94,82,64,30.01,29.90,9,1,10,0.00
2013-9-1,91,78,70,78,72,69,95,84,62,29.95,29.83,14,1,20,0.90
2013-9-2,88,77,70,78,73,69,96,87,65,29.96,29.85,6,0,6,0.12
2013-9-3,90,78,69,77,72,67,95,82,54,30.00,29.85,9,1,10,0.00
2013-9-4,86,74,63,71,66,61,94,77,53,30.13,30.00,7,0,9,0.00
2013-9-5,88,74,64,74,67,62,97,80,49,30.16,30.08,6,0,9,0.00
2013-9-6,84,72,63,66,62,60,93,74,48,30.22,30.11,8,1,9,0.00
2013-9-7,84,70,58,70,63,57,96,80,53,30.18,30.03,6,0,7,0.00
2013-9-8,89,75,63,72,66,62,96,76,47,30.04,29.95,9,0,9,0.00
2013-9-9,88,75,64,71,66,62,96,77,49,30.19,30.03,7,1,11,0.00
2013-9-10,89,76,64,74,67,63,97,77,48,30.28,30.18,6,0,7,0.00
2013-9-11,90,77,65,72,68,63,96,76,47,30.26,30.12,9,1,9,0.00
2013-9-12,90,78,68,75,69,65,91,75,54,30.12,29.88,9,1,10,0.00
2013-9-13,87,76,67,69,63,53,94,67,42,29.94,29.81,11,1,12,0.00
2013-9-14,77,67,58,60,55,50,92,68,52,30.17,29.94,11,2,14,0.00
2013-9-15,82,68,55,68,61,53,94,82,57,30.27,30.15,8,1,10,0.00
2013-9-16,87,76,66,73,67,61,94,76,42,30.19,30.08,8,1,9,0.00
2013-9-17,79,69,58,65,58,54,86,69,49,30.34,30.19,10,1,14,0.00
2013-9-18,76,62,54,59,55,51,93,78,52,30.36,30.22,9,1,9,0.00
2013-9-19,79,65,54,64,58,52,95,80,56,30.25,30.13,6,0,7,0.00
2013-9-20,86,72,63,70,64,59,91,77,53,30.14,29.96,6,0,7,0.00
2013-9-21,77,71,65,70,67,64,96,88,73,29.98,29.70,11,1,14,1.18
2013-9-22,78,67,56,66,60,55,95,81,50,29.95,29.68,14,2,17,0.60
2013-9-23,76,63,54,61,56,52,96,82,56,30.12,29.95,8,0,9,0.00
2013-9-24,82,65,53,63,57,52,97,78,47,30.14,29.99,7,0,7,0.00
2013-9-25,72,64,58,66,60,55,95,87,74,30.00,29.92,5,0,6,0.23
2013-9-26,81,68,55,64,58,50,96,75,45,30.08,29.92,9,1,10,0.01
2013-9-27,79,63,50,62,54,48,96,75,46,30.23,30.07,10,1,12,0.00
2013-9-28,76,61,49,59,52,47,96,75,48,30.31,30.21,16,1,16,0.00
2013-9-29,80,63,51,61,55,48,94,77,47,30.23,30.08,10,1,11,0.00
2013-9-30,76,61,51,63,54,49,96,81,52,30.16,30.06,7,0,7,0.00
2013-10-1,89,68,51,66,58,50,97,74,40,30.19,30.08,7,0,8,0.00
2013-10-2,91,71,55,69,60,53,96,74,39,30.20,30.10,8,0,9,0.00
2013-10-3,90,73,59,69,62,56,95,73,40,30.18,30.10,7,0,9,0.00
2013-10-4,94,75,60,70,63,57,95,71,39,30.19,30.10,5,0,8,0.00
2013-10-5,92,74,59,72,64,56,96,73,41,30.18,30.07,7,0,8,0.00
2013-10-6,84,73,59,69,64,56,95,76,53,30.10,29.95,9,1,10,0.00
2013-10-7,81,72,65,72,68,56,93,86,72,30.03,29.86,10,2,10,0.07
2013-10-8,65,60,58,57,51,47,76,71,65,30.25,30.02,12,2,15,0.00
2013-10-9,77,63,51,57,51,46,86,66,48,30.26,30.16,11,3,16,0.00
2013-10-10,72,63,53,62,56,48,84,76,68,30.16,30.01,10,2,13,0.00
2013-10-11,87,71,63,64,60,56,86,72,43,30.04,29.96,9,1,10,0.00
2013-10-12,79,67,56,65,60,53,96,79,57,30.13,30.00,7,0,7,0.00
2013-10-13,70,66,62,64,62,60,93,88,80,30.25,30.13,10,1,10,0.00
2013-10-14,68,63,60,64,60,58,95,90,83,30.28,30.21,11,1,11,0.08
2013-10-15,80,65,55,59,56,50,93,74,37,30.25,30.09,10,1,13,0.00
2013-10-16,83,65,52,64,57,49,95,79,49,30.13,30.00,5,0,6,0.00
2013-10-17,73,66,61,65,62,58,94,88,75,30.02,29.92,7,1,9,0.03
2013-10-18,68,63,55,64,58,52,94,84,68,30.08,29.94,8,1,8,0.00
2013-10-19,72,62,55,64,56,51,95,83,62,30.02,29.88,8,0,9,0.00
2013-10-20,72,56,44,51,46,40,95,72,39,30.17,29.97,11,1,12,0.01
2013-10-21,76,54,37,55,46,35,96,76,42,30.22,30.06,6,0,7,0.00
2013-10-22,66,60,53,60,55,49,93,86,77,30.09,29.86,5,0,5,0.00
2013-10-23,74,60,43,57,45,30,96,65,22,30.09,29.77,19,3,19,0.01
2013-10-24,66,49,32,42,36,29,95,64,35,30.25,30.09,11,1,13,0.00
2013-10-25,61,47,33,41,34,27,83,64,35,30.45,30.23,12,1,13,0.00
2013-10-26,66,44,26,38,31,23,95,64,30,30.44,30.17,9,1,12,0.00
2013-10-27,77,55,38,48,42,34,93,65,35,30.20,30.11,9,1,9,0.00
2013-10-28,70,55,45,61,50,42,95,86,68,30.33,30.17,5,0,5,0.05
2013-10-29,76,59,45,60,51,43,96,79,53,30.40,30.30,6,0,6,0.00
2013-10-30,83,61,48,60,53,46,96,77,42,30.35,30.21,9,1,13,0.00
2013-10-31,73,64,56,64,58,53,94,79,59,30.25,29.96,13,2,13,0.00
2013-11-1,69,65,58,66,62,56,95,89,82,29.97,29.71,16,3,18,0.41
2013-11-2,78,60,48,60,51,42,96,77,32,30.02,29.77,19,2,22,0.03
2013-11-3,67,48,36,45,38,34,95,71,35,30.41,30.02,13,1,15,0.00
2013-11-4,63,44,32,42,34,30,95,72,32,30.59,30.40,10,1,12,0.54
2013-11-5,60,47,33,48,40,30,90,77,59,30.61,30.48,9,1,11,0.00
2013-11-6,76,58,47,57,50,45,94,77,50,30.49,30.17,8,1,9,0.00
2013-11-7,74,57,44,62,49,33,96,76,44,30.18,30.00,15,2,15,0.00
2013-11-8,67,47,32,34,30,26,82,56,22,30.39,30.18,13,2,14,0.00
2013-11-9,64,46,27,38,31,24,95,62,28,30.45,30.28,8,1,10,0.00
2013-11-10,80,57,41,43,37,32,85,52,22,30.30,30.16,9,1,10,0.00
2013-11-11,68,47,31,35,31,25,89,57,25,30.41,30.22,9,0,11,0.00
2013-11-12,70,45,30,43,34,22,91,71,28,30.51,30.13,22,3,22,0.07
2013-11-13,51,34,23,26,22,18,87,63,31,30.63,30.51,12,2,13,0.02
2013-11-14,62,38,22,29,24,20,93,64,25,30.57,30.42,10,1,10,0.01
2013-11-15,60,46,28,48,38,24,91,75,48,30.43,30.26,7,0,8,0.07
2013-11-16,66,55,49,58,51,47,95,88,75,30.33,30.25,4,0,5,0.00
2013-11-17,72,60,49,64,57,47,97,90,68,30.27,29.97,9,1,11,0.08
2013-11-18,84,68,52,66,53,32,95,64,31,30.03,29.87,11,3,14,0.05
2013-11-19,62,48,36,33,28,25,75,48,27,30.34,30.02,15,2,18,0.00
2013-11-20,58,45,34,36,32,27,79,62,42,30.51,30.33,11,1,15,0.00
2013-11-21,62,51,44,48,42,34,79,70,57,30.55,30.42,9,1,10,0.00
2013-11-22,74,60,52,60,53,45,90,79,60,30.45,30.16,9,1,10,0.00
2013-11-23,61,56,42,58,47,19,95,73,40,30.25,30.10,14,2,14,0.00
2013-11-24,47,35,22,24,13,4,61,41,21,30.60,30.25,17,3,20,0.00
2013-11-25,45,32,17,16,12,9,81,47,24,30.66,30.42,9,1,9,0.00
2013-11-26,63,40,32,62,34,13,97,81,35,30.42,29.67,16,2,22,1.38
2013-11-27,46,40,26,45,35,19,96,85,65,30.28,29.58,21,3,21,0.33
2013-11-28,53,32,19,29,22,16,93,68,31,30.57,30.28,7,0,7,0.00
2013-11-29,56,36,22,33,25,20,94,69,31,30.68,30.55,9,1,9,0.00
2013-11-30,54,36,27,31,26,22,86,68,39,30.71,30.45,10,1,11,0.00
2013-12-1,61,44,29,41,35,24,91,73,44,30.45,30.09,6,0,6,0.00
2013-12-2,66,48,33,46,39,31,96,73,41,30.10,29.88,7,0,8,0.00
2013-12-3,63,53,43,53,46,38,89,80,64,30.03,29.93,9,1,9,0.00
2013-12-4,64,58,53,59,56,50,96,92,81,30.15,30.01,6,0,6,0.01
2013-12-5,65,62,59,64,61,58,97,96,93,30.18,30.09,12,2,12,0.15
2013-12-6,77,69,62,66,63,60,96,82,65,30.14,30.02,17,4,18,0.01
2013-12-7,68,54,46,64,50,39,93,86,79,30.48,30.04,12,2,17,0.09
2013-12-8,46,38,35,40,35,33,95,88,73,30.49,30.35,10,1,12,0.10
2013-12-9,47,41,35,46,40,33,97,96,95,30.35,30.12,4,0,5,0.17
2013-12-10,52,46,29,50,43,25,97,90,65,30.40,29.97,11,1,13,0.25
2013-12-11,56,36,23,34,26,21,95,72,32,30.54,30.38,6,0,6,0.01
2013-12-12,56,35,24,29,24,19,94,68,27,30.50,30.36,12,1,12,0.00
2013-12-13,55,36,20,32,26,17,94,69,35,30.47,30.34,12,1,12,0.00
2013-12-14,50,42,38,48,38,32,95,87,77,30.36,29.85,15,2,17,0.68
2013-12-15,62,45,32,49,38,27,97,77,45,30.17,29.80,11,2,12,0.03
2013-12-16,62,42,28,37,32,25,92,69,35,30.26,30.17,10,1,11,0.00
2013-12-17,64,49,35,40,34,30,84,59,36,30.21,30.00,14,2,19,0.00
2013-12-18,61,43,30,33,23,17,82,49,19,30.36,30.11,10,1,13,0.00
2013-12-19,65,44,28,31,27,24,87,56,22,30.41,30.30,7,1,13,0.00
2013-12-20,66,52,37,54,44,29,91,76,58,30.32,30.20,9,1,12,0.00
2013-12-21,72,60,45,64,55,42,96,85,68,30.22,30.08,12,2,15,0.00
2013-12-22,75,68,63,67,64,62,95,90,73,30.14,30.05,18,3,18,1.08
2013-12-23,64,59,46,63,57,40,97,94,79,30.22,30.05,11,2,16,1.33
2013-12-24,56,42,30,40,29,17,80,62,41,30.51,30.20,13,3,16,0.00
2013-12-25,44,31,20,24,17,12,83,58,30,30.63,30.47,8,1,9,0.00
2013-12-26,62,41,31,29,26,22,80,56,27,30.49,30.32,8,0,8,0.00
2013-12-27,58,36,24,30,24,20,92,67,29,30.55,30.42,6,0,8,0.00
2013-12-28,57,37,22,37,27,20,94,72,33,30.49,30.16,5,0,5,0.00
2013-12-29,52,46,40,49,43,34,96,91,63,30.18,29.84,11,2,13,1.24
2013-12-30,54,43,33,47,39,32,97,87,66,30.19,30.01,5,0,6,0.01
2013-12-31,54,43,32,43,34,28,94,74,38,30.44,30.16,10,1,12,0.00
2014-1-1,50,38,30,34,30,27,92,75,48,30.48,30.22,5,0,6,0.00
2014-1-2,49,44,37,46,40,28,95,87,66,30.22,29.71,19,2,21,0.17